Location: *
(50.1936°N, 7.3711°E)
Time: 02:10:57
(UTC+00:00)

Daily predictions for brighter satellites

Satellite Brightness Start Highest point End
(mag) Time Altitude Azimuth Time Altitude Azimuth Time Altitude Azimuth
Resurs 1-4 Rocket 4.4 00:01:00 10° NE 00:03:02 16° ENE 00:03:02 16° ENE
SJ 16-02 4.0 00:22:38 10° N 00:24:21 18° NNE 00:24:21 18° NNE
ATLAS 5 CENTAUR R/B 4.2 00:33:07 17° ENE 00:33:07 17° ENE 00:34:23 10° NE
USA 267 3.7 00:26:00 10° ENE 00:32:20 54° NNW 00:32:50 53° NNW
CZ-2D R/B 3.9 00:28:55 10° NNE 00:32:02 26° ENE 00:32:02 26° ENE
Cosmos 2082 Rocket 3.4 00:42:58 10° NNW 00:46:22 36° NNW 00:46:22 36° NNW
Cosmos 1844 Rocket 3.9 00:51:05 36° NNW 00:51:05 36° NNW 00:55:05 10° NNE
ATLAS CENTAUR R/B 4.0 00:56:16 19° NNW 00:56:16 19° NNW 00:59:39 10° NNE
Gbstr 26 Del rocket 4.4 01:01:20 80° ESE 01:01:20 80° ESE 01:09:04 10° ENE
CZ-4C R/B 4.4 00:55:43 10° NW 00:57:59 22° WNW 00:57:59 22° WNW
SL-16 R/B 2.9 01:04:13 60° NNW 01:04:13 60° NNW 01:09:14 10° NNW
Cosmos 1634 Rocket 4.3 01:03:28 10° N 01:09:44 59° ENE 01:09:52 59° E
Lacrosse 5 3.1 01:23:25 38° N 01:23:25 38° N 01:27:51 10° ENE
MOS 1-B Rocket 4.0 01:25:36 10° NNE 01:32:19 86° ENE 01:32:19 86° ENE
Cosmos 2278 Rocket 2.6 01:33:29 58° N 01:33:29 58° N 01:38:17 10° NNE
ADEOS II 3.3 01:30:59 10° NNE 01:35:46 35° E 01:36:21 34° ESE
CZ-4B R/B 4.1 01:38:26 20° NNE 01:38:26 20° NNE 01:40:02 10° N
Resurs 1-4 Rocket 2.4 01:39:43 10° NNE 01:44:07 61° N 01:44:07 61° N
SME Rocket 4.0 01:37:25 10° NNE 01:45:14 74° ESE 01:45:41 70° SE
Lacrosse 5 rocket 3.1 01:46:59 30° ENE 01:46:59 30° ENE 01:49:32 10° E
Cosmos 2208 Rocket 4.3 01:50:50 64° E 01:50:50 64° E 01:55:49 10° NNE
Cosmos 841 Rocket 4.0 01:53:33 50° ESE 01:53:36 50° ESE 01:58:38 10° NNE
Cosmos 2298 Rocket 4.1 01:50:39 10° NNW 01:56:01 75° ENE 01:56:07 75° ENE
Cosmos 2084 4.4 02:02:32 44° E 02:02:32 44° E 02:06:02 10° NE
SL-08 R/B 4.2 02:04:38 39° NNW 02:04:38 39° NNW 02:07:43 10° NNW
AQUA 4.4 01:58:23 10° N 02:02:08 51° NNW 02:02:08 51° NNW
SJ 16-02 3.8 02:00:51 10° NNW 02:01:18 13° NNW 02:01:18 13° NNW
Cosmos 1943 Rocket 3.7 02:03:09 22° SE 02:05:14 28° ESE 02:09:53 10° NE
IRS-1D 3.5 02:00:29 10° NNE 02:05:48 82° WNW 02:05:48 82° WNW
CRYOSAT 2 4.5 02:08:54 67° ESE 02:09:15 70° E 02:14:06 10° N
NPP 4.0 02:04:04 10° N 02:08:57 52° NW 02:08:57 52° NW
deb Chang Zheng 4 3.9 02:06:17 10° NNE 02:10:02 64° NNE 02:10:02 64° NNE
BREEZE-M DEB (TANK) 3.8 02:11:23 52° S 02:12:10 56° SSE 02:26:18 10° E
Cosmos 2142 Rocket 4.3 02:06:23 10° NNW 02:12:30 67° W 02:12:47 66° WSW
CZ-2D R/B 2.6 02:08:43 10° N 02:13:22 46° NW 02:13:22 46° NW
ATLAS 5 CENTAUR R/B 2.5 02:14:39 42° NNW 02:14:39 42° NNW 02:19:23 10° NE
USA 267 3.9 02:08:31 10° E 02:14:48 52° N 02:20:09 15° WNW
Cosmos 2228 Rocket 3.2 02:18:37 74° E 02:18:37 74° E 02:23:05 10° NNE
Cosmos 1461 3.5 02:20:33 30° NNW 02:22:14 53° NE 02:26:16 10° ESE
Cosmos 1570 Rocket 4.0 02:22:43 64° WNW 02:22:51 64° WNW 02:28:09 10° NNE
IRS-1C 4.0 02:18:37 10° NNE 02:23:58 74° WNW 02:24:27 69° WSW
IRIDIUM 103 4.5 02:23:51 45° SSE 02:25:26 71° E 02:30:39 10° N
ERS-1 4.4 02:20:50 10° NNE 02:25:57 88° WNW 02:26:37 69° SSW
CZ-2C R/B 3.7 02:22:18 10° NNE 02:26:10 44° E 02:26:38 42° ESE
Cosmos 1933 3.6 02:29:57 61° N 02:29:57 61° N 02:33:21 10° N
Unknown 4.4 02:30:58 38° E 02:30:58 38° E 02:33:16 10° ENE
Cosmos 2082 Rocket 4.4 02:27:52 10° NW 02:28:09 11° NW 02:28:09 11° NW
Unknown 4.5 02:33:56 37° ENE 02:33:56 37° ENE 02:36:02 10° ENE
CENTAUR R/B 3.8 02:31:07 19° SSE 02:34:35 34° ESE 02:40:40 10° NE
ATLAS 5 CENTAUR R/B 2.5 02:36:44 38° ENE 02:36:44 38° ENE 02:39:21 10° NE
ATLAS CENTAUR R/B 4.4 02:34:27 10° NNW 02:37:00 14° N 02:39:29 10° NE
Cosmos 2297 3.7 02:37:30 53° WSW 02:38:33 64° WNW 02:44:14 10° NNE
BREEZE-M DEB (TANK) 3.2 02:39:30 45° SSE 02:39:30 45° SSE 02:45:52 10° ESE
Atlas Centaur 2 4.5 02:39:28 14° S 02:39:43 14° S 02:43:21 10° SE
Cosmos 2180 Rocket 4.4 02:33:26 10° NNW 02:39:46 66° W 02:42:23 36° SSW
Cosmos 1151 Rocket 4.1 02:41:16 31° NW 02:41:16 31° NW 02:44:15 10° N
ARIANE 5 R/B 2.4 02:36:41 10° N 02:41:49 71° WNW 02:42:47 56° SW
Cosmos 972 4.2 02:37:56 10° NNW 02:43:02 68° WSW 02:44:11 50° SSW
IRIDIUM 106 4.2 02:42:04 46° S 02:43:41 83° W 02:48:57 10° N
BREEZE-M DEB (TANK) 4.4 02:39:40 32° SW 02:44:56 52° S 02:49:34 10° E
USA 238 DEB 3.6 02:43:42 40° SW 02:46:23 85° SE 02:53:24 10° NE
USA 238 3.6 02:43:47 40° SW 02:46:29 85° SE 02:53:31 10° NE
Cosmos 1763 Rocket 4.0 02:45:51 41° WNW 02:46:31 43° WNW 02:51:36 10° NNE
Cosmos 540 Rocket 3.3 02:46:12 54° SW 02:47:21 77° WNW 02:52:34 10° NNE
SL-16 R/B 4.2 02:49:20 17° WNW 02:49:20 17° WNW 02:51:42 10° NW
CZ-2D R/B 3.2 02:45:07 10° NNE 02:49:12 81° WNW 02:49:29 74° SW
Cosmos 1606 2.8 02:50:04 63° NW 02:50:04 63° NW 02:53:41 10° N
Cosmos 2279 Rocket 4.3 02:44:32 10° NNW 02:50:26 45° W 02:51:39 41° WSW
Cosmos 2369 Rocket 2.7 02:51:13 25° S 02:54:28 58° ESE 03:00:03 10° NE
SL-4 R/B 1.5 02:57:25 86° NNE 02:57:25 86° NNE 03:01:00 10° ESE
H-2A R/B 4.3 02:55:22 10° NE 02:58:41 26° E 03:01:56 10° SSE
Meteor 1-20 Rocket 4.1 02:53:49 10° NNW 02:59:12 59° W 03:02:08 27° SSW
SeaSat 1 3.7 02:54:43 10° NE 02:59:20 38° ESE 03:03:19 13° S
Unknown 3.0 03:02:41 80° SW 03:02:50 86° SSE 03:06:23 10° ENE
Cosmos 1125 Rocket 3.4 02:59:03 10° NNW 03:04:20 66° WSW 03:09:35 10° S
Cosmos 1092 Rocket 4.2 02:59:02 10° S 03:05:07 68° E 03:11:14 10° NNE
IDEFIX/ARIANE 42P 3.4 03:01:26 10° NNE 03:06:34 49° E 03:11:40 10° S
Lacrosse 5 2.7 03:02:37 13° NW 03:06:54 48° NNE 03:11:48 10° E
Cosmos 1707 Rocket 3.8 03:04:06 21° S 03:07:02 69° E 03:11:26 10° NNE
Cosmos 1814 Rocket 4.4 03:07:10 36° W 03:08:32 45° WNW 03:13:32 10° NNE
CZ-4B R/B 3.7 03:11:44 14° NW 03:11:44 14° NW 03:12:27 10° NW
Spot 2 4.4 03:08:06 10° NNE 03:12:52 73° ESE 03:16:11 18° S
ADEOS II 2.6 03:10:39 10° N 03:15:33 40° WNW 03:17:17 31° WSW
Cosmos 1733 Rocket 3.5 03:11:15 10° N 03:15:42 63° ENE 03:20:07 10° SSE
Cosmos 2278 Rocket 4.0 03:15:20 15° WNW 03:17:47 19° NW 03:21:45 10° N
PSLV R/B 4.1 03:13:37 10° NNE 03:17:59 60° E 03:22:17 10° S
COSMOS 2487 2.4 03:15:19 10° NNW 03:18:49 85° ENE 03:22:18 10° SSE
Cosmos 1782 2.7 03:17:22 36° SSW 03:18:52 70° WNW 03:22:51 10° N
Falcon 9 debris 3.2 03:18:40 49° W 03:19:28 73° NNW 03:22:57 10° ENE
Cosmos 1602 3.7 03:17:03 10° NNW 03:20:57 58° W 03:23:24 21° S
USA 215 4.3 03:14:57 10° ENE 03:20:59 38° SE 03:26:57 10° SSW
Meteor 1-28 Rocket 3.6 03:21:34 40° WSW 03:21:40 40° W 03:25:15 10° NNW
Resurs 1-4 Rocket 3.9 03:21:02 10° NNW 03:24:01 15° NW 03:25:11 14° WNW
Lacrosse 5 rocket 1.5 03:22:42 28° WNW 03:24:41 54° SW 03:28:58 10° SE
Unknown 3.8 03:24:26 33° SSW 03:25:54 54° SSE 03:29:43 10° ENE
Cosmos 220 Rocket 4.2 03:23:08 18° SSW 03:26:13 71° ESE 03:30:30 10° NNE
Nadezhda 4 Rocket 4.0 03:23:21 20° SSW 03:27:41 58° WNW 03:33:44 10° N
BREEZE-M DEB (TANK) 3.9 03:15:39 10° W 03:27:59 79° SSW 03:31:39 10° ESE
Cosmos 2344 3.6 03:23:38 23° SW 03:28:46 80° NW 03:37:26 10° NE
Cosmos 1400 Rocket 2.9 03:27:09 12° S 03:30:48 72° E 03:34:41 10° NNE
NOSS 3-2 (A) 3.6 03:28:31 25° WSW 03:32:10 67° NW 03:38:58 10° NE
Cosmos 1812 4.2 03:29:28 10° SSE 03:33:02 38° E 03:36:39 10° NNE
Unknown 3.5 03:31:30 31° SW 03:33:08 66° SSE 03:36:57 10° ENE
NOSS 3-2 (C) 3.5 03:29:59 22° SW 03:34:02 87° NW 03:40:52 10° NE
Unknown 3.3 03:34:03 32° W 03:35:32 67° NNW 03:39:05 10° ENE
Cosmos 1869 Rocket 4.5 03:33:22 10° NNW 03:37:14 29° W 03:38:27 25° WSW
MSX 4.3 03:34:20 10° NNE 03:40:05 64° ESE 03:45:47 10° S
PSLV R/B 4.0 03:36:46 10° S 03:40:49 52° W 03:44:53 10° NNW
BREEZE-M DEB (TANK) 3.7 03:37:57 19° SW 03:40:58 39° SSE 03:43:30 10° E
ATLAS 3B R/B 2.7 03:35:32 16° SW 03:41:03 83° SE 03:47:41 10° NE
Cosmos 2084 4.5 03:39:06 21° W 03:41:25 35° NNW 03:45:30 10° NE
Unknown 4.4 03:39:21 20° SSW 03:41:56 45° SE 03:45:53 10° ENE
Unknown 4.5 03:40:44 18° SSW 03:43:25 43° SE 03:47:21 10° ENE
Unknown 4.4 03:42:20 18° SSW 03:45:03 44° SSE 03:49:01 10° ENE
Cosmos 1553 Rocket 4.2 03:39:49 10° N 03:46:11 78° E 03:52:22 10° SSE
Unknown 4.4 03:45:31 17° SW 03:48:21 46° SSE 03:52:20 10° ENE
Meteor 1-31 Rocket 4.3 03:44:47 10° NNE 03:48:31 39° E 03:52:11 10° SSE
Cosmos 1536 3.4 03:44:34 10° N 03:48:32 60° ENE 03:52:28 10° SSE
Cosmos 1943 Rocket 2.3 03:44:42 19° SW 03:48:39 56° NW 03:54:09 10° NNE
Cosmos 44 3.8 03:43:46 10° SSW 03:48:42 57° SE 03:53:25 10° NE
Unknown 4.3 03:47:05 17° SW 03:49:59 47° SSE 03:53:59 10° ENE
Unknown 3.9 03:47:30 20° SW 03:50:09 57° SSE 03:54:09 10° ENE
CZ-4B R/B 4.3 03:46:26 10° NNE 03:50:47 46° E 03:55:08 10° S
Unknown 4.1 03:48:06 18° SW 03:50:55 51° SSE 03:54:54 10° ENE
Unknown 4.3 03:48:41 17° SW 03:51:39 48° SSE 03:55:38 10° ENE
Timation 2 Rocket 3.8 03:46:39 10° NNW 03:52:44 78° WSW 03:58:41 10° SSE
Unknown 4.2 03:50:19 16° SW 03:53:20 49° SSE 03:57:21 10° ENE
Unknown 3.4 03:53:30 17° WNW 03:55:26 46° N 03:58:14 10° E
Cosmos 2242 Rocket 4.1 03:51:06 10° S 03:55:36 66° E 04:00:06 10° NNE
USA 102 4.2 03:51:33 10° NNE 03:56:13 68° WNW 03:59:30 17° SW
Unknown 4.2 03:53:31 16° SW 03:56:38 51° SSE 04:00:41 10° ENE
USA 267 3.4 03:50:58 10° ESE 03:57:32 84° NNE 04:04:06 10° WNW
Unknown 4.0 03:55:28 16° SW 03:58:36 58° SSE 04:02:40 10° ENE
Cosmos 1346 Rocket 2.9 03:54:37 10° N 03:58:45 83° ENE 04:02:51 10° SSE
Iridium 4 Rocket 3.3 03:54:26 10° SSW 03:58:53 49° W 04:03:05 10° N
Cosmos 2263 4.2 03:54:15 12° SW 03:59:32 69° WNW 04:05:10 10° NNE
FALCON 9 DEB 3.6 03:57:28 18° W 03:59:56 57° N 04:03:26 10° ENE
Unknown 4.0 03:57:00 16° SW 04:00:13 58° SSE 04:04:18 10° ENE
CZ-2C R/B 4.3 03:57:18 10° NNW 04:00:20 21° WNW 04:02:02 16° W
ATLAS 5 CENTAUR R/B 3.8 03:56:55 10° WNW 04:00:32 20° N 04:04:32 10° NE
Unknown 4.1 03:57:18 15° SW 04:00:34 56° SSE 04:04:39 10° ENE
Cosmos 1461 4.0 03:57:53 10° WNW 04:01:04 22° WSW 04:04:18 10° SSW
Meteor 1-5 Rocket 4.1 03:56:09 10° NNW 04:01:30 64° W 04:06:58 10° S
Unknown 4.1 03:59:55 14° SW 04:03:17 56° SSE 04:07:21 10° ENE
ADEOS 3.8 04:00:06 10° N 04:05:11 53° WNW 04:10:14 10° SW
Unknown 4.0 04:03:06 14° SW 04:06:36 59° SSE 04:10:41 10° ENE
Unknown 3.6 04:04:08 15° W 04:06:52 54° N 04:10:16 10° ENE
Cosmos 2026 Rocket 4.1 04:00:58 10° SSW 04:07:11 64° WNW 04:13:32 10° N
Unknown 4.0 04:04:42 13° SW 04:08:16 60° SSE 04:12:21 10° ENE
Unknown 3.6 04:06:04 12° WNW 04:08:51 49° N 04:12:01 10° E
Cosmos 1666 3.5 04:05:26 10° N 04:09:08 54° ENE 04:12:48 10° SSE
Unknown 3.9 04:06:18 13° SW 04:09:55 61° SSE 04:14:01 10° ENE
Unknown 3.9 04:07:53 13° SW 04:11:33 63° SSE 04:15:40 10° ENE
Cosmos 1655 Rocket 4.2 04:06:42 10° S 04:12:55 79° E 04:19:13 10° NNE
Unknown 3.4 04:09:59 14° W 04:13:05 72° NNW 04:16:50 10° ENE
Cosmos 1862 Rocket 3.7 04:10:08 10° SSW 04:14:32 58° WNW 04:19:00 10° N
CZ-4B R/B 3.9 04:12:32 10° NNE 04:16:17 75° ESE 04:19:56 10° S
ATLAS CENTAUR R/B 3.8 04:13:45 10° NNW 04:17:35 24° NNE 04:21:10 10° E
Unknown 3.8 04:14:17 11° SW 04:18:13 68° SSE 04:22:21 10° ENE
Cosmos 1340 2.6 04:14:58 10° NNW 04:18:44 63° W 04:22:28 10° S
Unknown 3.8 04:15:53 11° SW 04:19:52 69° SSE 04:24:00 10° ENE
ARIANE 5 R/B 4.4 04:17:30 10° NNW 04:20:03 14° NW 04:22:34 10° W
Unknown 3.8 04:17:29 10° WSW 04:21:33 71° SSE 04:25:41 10° ENE
Unknown 3.8 04:19:05 10° WSW 04:23:11 72° SSE 04:27:20 10° ENE
CENTAUR R/B 2.8 04:18:35 10° WSW 04:24:46 67° NW 04:32:06 10° NE
Unknown 3.8 04:20:43 10° WSW 04:24:50 73° SSE 04:29:00 10° ENE
Aureole 2 Rocket 2.2 04:22:49 10° SSW 04:25:29 63° ESE 04:28:08 10° NNE
SJ-6F 4.5 04:22:00 10° N 04:26:09 65° WNW 04:30:18 10° SSW
S3M 4.0 04:20:20 10° NNW 04:26:28 71° W 04:32:39 10° S
Cosmos 2219 3.8 04:21:03 10° NNW 04:26:45 62° ENE 04:32:21 10° SE
Unknown 3.7 04:24:00 10° WSW 04:28:09 76° SSE 04:32:18 10° ENE
Cosmos 2227 Rocket 3.6 04:23:21 10° NNW 04:28:47 43° NE 04:34:10 10° ESE
Starlink (trailer) 3.7 04:25:40 10° WSW 04:29:48 77° SSE 04:33:58 10° ENE
Unknown 3.7 04:27:21 10° WSW 04:31:30 79° SSE 04:35:39 10° ENE
ALOS 4.4 04:28:38 10° NNE 04:32:51 32° E 04:37:01 10° SSE
Unknown 3.7 04:29:00 10° WSW 04:33:09 80° SSE 04:37:19 10° ENE
H-2A R/B 3.2 04:30:48 10° N 04:34:12 30° WNW 04:37:35 10° SW
CZ-2C R/B 2.4 04:30:39 10° N 04:35:26 67° WNW 04:40:22 10° SSW
COSMO-SKYMED 1 2.7 04:32:08 10° SSE 04:36:28 87° ENE 04:40:51 10° NNW
Meteor 1-27 Rocket 3.9 04:30:52 10° SSW 04:36:42 61° WNW 04:42:27 10° N
SL-4 R/B 2.6 04:33:40 10° W 04:36:48 31° SSW 04:40:03 10° SSE
SeaSat 1 3.0 04:32:14 10° NNE 04:36:53 42° NW 04:41:30 10° WSW
Cosmos 2369 Rocket 3.1 04:33:46 10° WSW 04:38:51 32° NW 04:43:55 10° NNE
Unknown 3.7 04:35:39 10° WSW 04:39:48 85° SSE 04:43:58 10° ENE
Cosmos 2297 Rocket 3.2 04:34:33 10° NNW 04:40:07 52° NE 04:45:37 10° SE
Unknown 3.8 04:36:49 10° W 04:40:16 52° N 04:43:44 10° ENE
Okean 1-7 3.2 04:36:05 10° S 04:40:29 85° E 04:44:55 10° N
PAYLOAD A 4.1 04:36:23 10° N 04:41:02 49° WNW 04:45:34 10° SW
